Edinburgh Airport, United Kingdom

5:26 PM GMT on February 12, 2016 (GMT +0000)
Edinburgh Airport

Weather History for EGPH - April, 2014

Change the Weather History Date:

Sunday, April 13, 2014

  Actual Average Record
Temperature  
Mean Temperature 48 °F -  
Max Temperature 51 °F 55 °F 60 °F (2003)
Min Temperature 44 °F 40 °F 24 °F (2001)
Degree Days  
Heating Degree Days 18    
Moisture  
Dew Point 40 °F    
Average Humidity 76    
Maximum Humidity 87    
Minimum Humidity 66    
Precipitation  
Precipitation 0.00 in 0.06 in - ()
Sea Level Pressure  
Sea Level Pressure 29.94 in    
Wind  
Wind Speed 16 mph ()    
Max Wind Speed 26 mph    
Max Gust Speed 38 mph    
Visibility 6.1 miles    
Events Rain    
Averages and records for this station are not official NWS values.
T = Trace of Precipitation, MM = Missing Value Source: Averaged Metar Reports

Daily Weather History Graph

Daily Weather History Graph

Search for Another Location

Airport or City:

Trip Planner

Search our weather history database for the weather conditions in past years. The results will help you decide how hot, cold, wet, or windy it might be!

Date:

Astronomy

Apr. 13, 2014 Rise Set
Actual Time 6:13 AM BST 8:15 PM BST
Civil Twilight 5:33 AM BST 8:55 PM BST
Nautical Twilight 4:43 AM BST 9:46 PM BST
Astronomical Twilight 3:44 AM BST 10:46 PM BST
Moon 6:23 PM BST (4/13) 5:25 AM BST (4/13)
Length of Visible Light 15h 21m
Length of Day
14h 02m
Waxing Gibbous, 96% of the Moon is Illuminated
Apr 13
Waxing Gibbous
Apr 15
Full
Apr 22
Last Quarter
Apr 29
New
May 7
First Quarter

Hourly Weather History & Observations

Time (BST) Temp. Windchill Dew Point Humidity Pressure Visibility Wind Dir Wind Speed Gust Speed Precip Events Conditions
12:20 AM 46.4 °F 39.5 °F 37.4 °F 71% 29.92 in 6.2 mi WSW 17.3 mph - N/A   Partly Cloudy
12:50 AM 44.6 °F 37.2 °F 37.4 °F 76% 29.92 in 6.2 mi WSW 17.3 mph - N/A   Scattered Clouds
1:20 AM 44.6 °F 37.2 °F 39.2 °F 81% 29.92 in 6.2 mi WSW 17.3 mph - N/A   Scattered Clouds
1:50 AM 44.6 °F 36.9 °F 37.4 °F 76% 29.92 in 6.2 mi West 18.4 mph - N/A   Scattered Clouds
2:20 AM 44.6 °F 37.4 °F 37.4 °F 76% 29.92 in 6.2 mi West 16.1 mph - N/A   Partly Cloudy
2:50 AM 44.6 °F 36.6 °F 39.2 °F 81% 29.92 in 6.2 mi West 19.6 mph - N/A   Mostly Cloudy
3:20 AM 44.6 °F 37.4 °F 39.2 °F 81% 29.92 in 6.2 mi WSW 16.1 mph - N/A   Mostly Cloudy
3:50 AM 44.6 °F 37.2 °F 37.4 °F 76% 29.92 in 6.2 mi WSW 17.3 mph 29.9 mph N/A   Scattered Clouds
4:20 AM 44.6 °F 37.4 °F 37.4 °F 76% 29.92 in 6.2 mi WSW 16.1 mph - N/A   Mostly Cloudy
4:50 AM 44.6 °F 37.4 °F 39.2 °F 81% 29.95 in 6.2 mi WSW 16.1 mph - N/A   Overcast
5:20 AM 44.6 °F 37.8 °F 39.2 °F 81% 29.95 in 6.2 mi WSW 15.0 mph - N/A   Overcast
5:50 AM 44.6 °F 37.2 °F 37.4 °F 76% 29.95 in 6.2 mi WSW 17.3 mph - N/A   Partly Cloudy
6:20 AM 44.6 °F 37.4 °F 37.4 °F 76% 29.95 in 6.2 mi WSW 16.1 mph - N/A   Partly Cloudy
6:50 AM 44.6 °F 37.8 °F 37.4 °F 76% 29.98 in 6.2 mi WSW 15.0 mph - N/A   Unknown
7:20 AM 44.6 °F 37.8 °F 39.2 °F 81% 29.98 in 6.2 mi WSW 15.0 mph - N/A   Scattered Clouds
7:50 AM 46.4 °F 39.0 °F 39.2 °F 76% 29.98 in 6.2 mi WSW 19.6 mph - N/A   Mostly Cloudy
8:20 AM 46.4 °F 39.5 °F 39.2 °F 76% 29.98 in 6.2 mi WSW 17.3 mph - N/A   Mostly Cloudy
8:50 AM 48.2 °F - 39.2 °F 71% 29.98 in 6.2 mi WSW 19.6 mph - N/A   Mostly Cloudy
9:20 AM 48.2 °F - 41.0 °F 76% 29.98 in 6.2 mi WSW 20.7 mph - N/A   Mostly Cloudy
9:50 AM 48.2 °F - 41.0 °F 76% 29.98 in 6.2 mi WSW 18.4 mph - N/A   Mostly Cloudy
10:20 AM 48.2 °F - 41.0 °F 76% 29.98 in 6.2 mi WSW 16.1 mph - N/A   Mostly Cloudy
10:50 AM 48.2 °F - 42.8 °F 82% 29.98 in 6.2 mi WSW 15.0 mph - N/A Rain Light Rain
11:20 AM 50.0 °F - 41.0 °F 71% 29.98 in 6.2 mi West 17.3 mph - N/A   Mostly Cloudy
11:50 AM 50.0 °F - 41.0 °F 71% 29.98 in 6.2 mi WSW 20.7 mph - N/A   Mostly Cloudy
12:20 PM 50.0 °F - 41.0 °F 71% 29.98 in 6.2 mi WSW 21.9 mph 36.8 mph N/A Rain Light Rain
12:50 PM 50.0 °F - 41.0 °F 71% 29.95 in 6.2 mi West 20.7 mph 33.4 mph N/A   Mostly Cloudy
1:20 PM 50.0 °F - 39.2 °F 66% 29.95 in 6.2 mi West 23.0 mph 36.8 mph N/A   Mostly Cloudy
1:50 PM 50.0 °F - 39.2 °F 66% 29.95 in 6.2 mi West 23.0 mph 38.0 mph N/A   Mostly Cloudy
2:20 PM 51.8 °F - 41.0 °F 67% 29.95 in 6.2 mi West 21.9 mph 34.5 mph N/A   Scattered Clouds
2:50 PM 50.0 °F - 41.0 °F 71% 29.92 in 6.2 mi WSW 23.0 mph 36.8 mph N/A Rain Light Rain
3:20 PM 46.4 °F 37.7 °F 41.0 °F 81% 29.92 in 6.2 mi WSW 26.5 mph - N/A Rain Light Rain
3:50 PM 48.2 °F - 42.8 °F 82% 29.92 in 6.2 mi WSW 25.3 mph 36.8 mph N/A Rain Light Rain
4:20 PM 46.4 °F 38.1 °F 42.8 °F 87% 29.89 in 3.7 mi WSW 24.2 mph - N/A Rain Light Rain
4:50 PM 48.2 °F - 44.6 °F 87% 29.89 in 6.2 mi WSW 24.2 mph - N/A Rain Light Rain
5:20 PM 48.2 °F - 44.6 °F 87% 29.89 in 3.7 mi West 24.2 mph 35.7 mph N/A Rain Rain
5:50 PM 48.2 °F - 44.6 °F 87% 29.89 in 6.2 mi West 17.3 mph - N/A Rain Light Rain
6:20 PM 48.2 °F - 41.0 °F 76% 29.89 in 6.2 mi West 19.6 mph - N/A   Scattered Clouds
6:50 PM 48.2 °F - 39.2 °F 71% 29.89 in 6.2 mi West 15.0 mph - N/A   Scattered Clouds
7:20 PM 48.2 °F - 39.2 °F 71% 29.92 in 6.2 mi West 18.4 mph 32.2 mph N/A   Scattered Clouds
7:50 PM 46.4 °F 40.4 °F 37.4 °F 71% 29.92 in 6.2 mi West 13.8 mph - N/A   Partly Cloudy
8:20 PM 46.4 °F 40.1 °F 37.4 °F 71% 29.92 in 6.2 mi West 15.0 mph 28.8 mph N/A   Partly Cloudy
8:50 PM 46.4 °F 39.8 °F 37.4 °F 71% 29.92 in 6.2 mi West 16.1 mph - N/A   Partly Cloudy
9:20 PM 46.4 °F 40.4 °F 37.4 °F 71% 29.95 in 6.2 mi West 13.8 mph - N/A   Partly Cloudy
9:50 PM 44.6 °F 37.8 °F 37.4 °F 76% 29.95 in 6.2 mi West 15.0 mph 26.5 mph N/A   Partly Cloudy
10:20 PM 44.6 °F 38.1 °F 37.4 °F 76% 29.95 in - West 13.8 mph - N/A   Clear
10:50 PM 44.6 °F 37.2 °F 37.4 °F 76% 29.98 in - West 17.3 mph - N/A   Clear
11:20 PM 44.6 °F 38.4 °F 37.4 °F 76% 29.98 in - West 12.7 mph - N/A   Clear
11:50 PM 44.6 °F 38.4 °F 37.4 °F 76% 30.01 in 6.2 mi West 12.7 mph - N/A   Unknown